Weather History for Manitowoc, WI

Change the Weather History Date:

Friday, November 23, 2012

  Actual Average Record
Temperature  
Mean Temperature 34 °F -  
Max Temperature 41 °F 40 °F 55 °F (1963)
Min Temperature 26 °F 26 °F 0 °F (1950)
Degree Days  
Heating Degree Days 32    
Moisture  
Dew Point 18 °F    
Average Humidity 59    
Maximum Humidity 70    
Minimum Humidity 51    
Precipitation  
Precipitation 0.00 in - - ()
Sea Level Pressure  
Sea Level Pressure 29.92 in    
Wind  
Wind Speed 23 mph (WNW)    
Max Wind Speed 31 mph    
Max Gust Speed 43 mph    
Visibility 10 miles    
Events      
Averages and records for this station are not official NWS values.
T = Trace of Precipitation, MM = Missing Value Source: NWS Daily Summary

Daily Weather History Graph

Daily Weather History Graph

Search for Another Location

Airport:

Trip Planner

Search our weather history database for the weather conditions in past years. The results will help you decide how hot, cold, wet, or windy it might be!

Date:

Astronomy

Nov. 23, 2012 Rise Set
Actual Time 6:56 AM CST 4:17 PM CST
Civil Twilight 6:25 AM CST 4:49 PM CST
Nautical Twilight 5:49 AM CST 5:24 PM CST
Astronomical Twilight 5:14 AM CST 5:59 PM CST
Moon 1:39 PM CST (11/23) 2:07 AM CST (11/23)
Length of Visible Light 10h 24m
Length of Day
9h 20m
Waxing Gibbous, 80% of the Moon is Illuminated
Nov 23
Waxing Gibbous
Nov 28
Full
Dec 6
Last Quarter
Dec 13
New
Dec 19
First Quarter

Hourly Weather History & Observations

Time (CST) Temp. Windchill Dew Point Humidity Pressure Visibility Wind Dir Wind Speed Gust Speed Precip Events Conditions
12:15 AM 41.0 °F 31.4 °F 28.4 °F 61% 29.69 in 10.0 mi West 21.9 mph 32.2 mph N/A   Scattered Clouds
12:35 AM 39.2 °F 29.3 °F 26.6 °F 61% 29.69 in 10.0 mi West 20.7 mph 32.2 mph N/A   Clear
12:55 AM 39.2 °F 28.0 °F 28.4 °F 65% 29.69 in 10.0 mi West 26.5 mph 32.2 mph N/A   Mostly Cloudy
1:15 AM 37.4 °F 25.4 °F 26.6 °F 65% 29.70 in 10.0 mi West 27.6 mph 35.7 mph N/A   Overcast
1:35 AM 37.4 °F 25.6 °F 26.6 °F 65% 29.70 in 10.0 mi West 26.5 mph 39.1 mph N/A   Overcast
1:55 AM 37.4 °F 27.2 °F 28.4 °F 70% 29.71 in 10.0 mi West 19.6 mph 31.1 mph N/A   Overcast
2:15 AM 37.4 °F 26.1 °F 26.6 °F 65% 29.72 in 10.0 mi West 24.2 mph 33.4 mph N/A   Overcast
2:35 AM 37.4 °F 26.4 °F 26.6 °F 65% 29.72 in 10.0 mi West 23.0 mph 31.1 mph N/A   Overcast
2:55 AM 37.4 °F 26.9 °F 24.8 °F 60% 29.72 in 10.0 mi West 20.7 mph 29.9 mph N/A   Overcast
3:15 AM 37.4 °F 25.9 °F 24.8 °F 60% 29.72 in 10.0 mi WSW 25.3 mph 36.8 mph N/A   Overcast
3:35 AM 35.6 °F 23.0 °F 21.2 °F 56% 29.72 in 10.0 mi West 27.6 mph 42.6 mph N/A   Overcast
3:55 AM 33.8 °F 21.9 °F 21.2 °F 60% 29.72 in 10.0 mi West 21.9 mph 36.8 mph N/A   Overcast
4:15 AM 33.8 °F 21.9 °F 21.2 °F 60% 29.73 in 10.0 mi West 21.9 mph 38.0 mph N/A   Overcast
4:35 AM 33.8 °F 21.0 °F 19.4 °F 56% 29.74 in 10.0 mi West 25.3 mph 35.7 mph N/A   Overcast
4:55 AM 33.8 °F 20.8 °F 19.4 °F 56% 29.74 in 10.0 mi West 26.5 mph 40.3 mph N/A   Overcast
5:15 AM 32.0 °F 21.2 °F 19.4 °F 60% 29.75 in 10.0 mi West 16.1 mph 28.8 mph N/A   Overcast
5:35 AM 30.2 °F 17.1 °F 19.4 °F 64% 29.75 in 10.0 mi West 21.9 mph 38.0 mph N/A   Overcast
5:55 AM 30.2 °F 17.1 °F 17.6 °F 60% 29.76 in 10.0 mi West 21.9 mph 28.8 mph N/A   Overcast
6:15 AM 30.2 °F 15.7 °F 17.6 °F 60% 29.76 in 10.0 mi West 27.6 mph 35.7 mph N/A   Overcast
6:35 AM 28.4 °F 13.3 °F 15.8 °F 59% 29.77 in 10.0 mi West 27.6 mph 36.8 mph N/A   Overcast
6:55 AM 28.4 °F 15.4 °F 17.6 °F 64% 29.78 in 10.0 mi West 19.6 mph 38.0 mph N/A   Overcast
7:15 AM 28.4 °F 15.1 °F 17.6 °F 64% 29.79 in 5.0 mi West 20.7 mph 33.4 mph N/A   Overcast
7:35 AM 28.4 °F 14.4 °F 17.6 °F 64% 29.80 in 8.0 mi West 23.0 mph 33.4 mph N/A   Overcast
7:55 AM 28.4 °F 15.1 °F 17.6 °F 64% 29.81 in 10.0 mi West 20.7 mph 31.1 mph N/A   Overcast
8:15 AM 28.4 °F 14.4 °F 17.6 °F 64% 29.82 in 10.0 mi West 23.0 mph 31.1 mph N/A   Overcast
8:35 AM 28.4 °F 13.8 °F 17.6 °F 64% 29.82 in 10.0 mi West 25.3 mph 34.5 mph N/A   Overcast
8:55 AM 28.4 °F 14.1 °F 17.6 °F 64% 29.84 in 10.0 mi West 24.2 mph 32.2 mph N/A   Overcast
9:15 AM 28.4 °F 14.1 °F 19.4 °F 69% 29.84 in 4.0 mi West 24.2 mph 32.2 mph N/A   Overcast
9:35 AM 30.2 °F 18.5 °F 19.4 °F 64% 29.85 in 10.0 mi West 17.3 mph 31.1 mph N/A   Overcast
9:55 AM 30.2 °F 15.9 °F 17.6 °F 60% 29.85 in 10.0 mi West 26.5 mph 35.7 mph N/A   Scattered Clouds
10:15 AM 33.8 °F 20.8 °F 19.4 °F 56% 29.85 in 10.0 mi West 26.5 mph 39.1 mph N/A   Partly Cloudy
10:35 AM 32.0 °F 18.1 °F 17.6 °F 55% 29.86 in 10.0 mi West 27.6 mph 38.0 mph N/A   Mostly Cloudy
10:55 AM 33.8 °F 20.5 °F 17.6 °F 52% 29.87 in 10.0 mi WNW 27.6 mph 40.3 mph N/A   Overcast
11:15 AM 33.8 °F 20.1 °F 17.6 °F 52% 29.87 in 10.0 mi West 29.9 mph 39.1 mph N/A   Overcast
11:35 AM 33.8 °F 20.3 °F 17.6 °F 52% 29.88 in 10.0 mi WNW 28.8 mph 39.1 mph N/A   Overcast
12:15 PM 33.8 °F 21.3 °F 17.6 °F 52% 29.90 in 10.0 mi WNW 24.2 mph 34.5 mph N/A   Overcast
12:35 PM 33.8 °F 21.0 °F 17.6 °F 52% 29.91 in 10.0 mi NW 25.3 mph 32.2 mph N/A   Overcast
12:55 PM 33.8 °F 20.5 °F 17.6 °F 52% 29.92 in 10.0 mi WNW 27.6 mph 38.0 mph N/A   Overcast
1:15 PM 33.8 °F 21.0 °F 17.6 °F 52% 29.93 in 10.0 mi WNW 25.3 mph 42.6 mph N/A   Overcast
1:35 PM 33.8 °F 21.6 °F 17.6 °F 52% 29.93 in 10.0 mi WNW 23.0 mph 33.4 mph N/A   Overcast
1:55 PM 33.8 °F 20.1 °F 17.6 °F 52% 29.94 in 10.0 mi WNW 29.9 mph 35.7 mph N/A   Overcast
2:15 PM 33.8 °F 20.8 °F 17.6 °F 52% 29.96 in 10.0 mi WNW 26.5 mph 36.8 mph N/A   Overcast
2:35 PM 33.8 °F 19.9 °F 17.6 °F 52% 29.97 in 10.0 mi WNW 31.1 mph 36.8 mph N/A   Overcast
2:55 PM 33.8 °F 21.0 °F 17.6 °F 52% 29.99 in 10.0 mi WNW 25.3 mph 32.2 mph N/A   Mostly Cloudy
3:15 PM 32.0 °F 18.6 °F 17.6 °F 55% 30.01 in 10.0 mi WNW 25.3 mph 32.2 mph N/A   Mostly Cloudy
3:35 PM 32.0 °F 19.8 °F 15.8 °F 51% 30.02 in 10.0 mi WNW 20.7 mph 35.7 mph N/A   Mostly Cloudy
3:55 PM 32.0 °F 19.5 °F 15.8 °F 51% 30.04 in 10.0 mi WNW 21.9 mph 28.8 mph N/A   Overcast
4:15 PM 30.2 °F 16.5 °F 15.8 °F 55% 30.05 in 10.0 mi WNW 24.2 mph 28.8 mph N/A   Overcast
4:35 PM 30.2 °F 17.1 °F 15.8 °F 55% 30.06 in 10.0 mi WNW 21.9 mph 33.4 mph N/A   Overcast
4:55 PM 30.2 °F 18.5 °F 15.8 °F 55% 30.07 in 10.0 mi NW 17.3 mph 35.7 mph N/A   Overcast
5:15 PM 30.2 °F 18.5 °F 15.8 °F 55% 30.08 in 10.0 mi WNW 17.3 mph 23.0 mph N/A   Overcast
5:35 PM 30.2 °F 17.4 °F 15.8 °F 55% 30.09 in 10.0 mi NW 20.7 mph 29.9 mph N/A   Overcast
5:55 PM 28.4 °F 14.7 °F 12.2 °F 51% 30.10 in 10.0 mi NW 21.9 mph 28.8 mph N/A   Mostly Cloudy
6:15 PM 30.2 °F 18.5 °F 15.8 °F 55% 30.11 in 10.0 mi NW 17.3 mph 27.6 mph N/A   Overcast
6:35 PM 30.2 °F 17.8 °F 15.8 °F 55% 30.11 in 10.0 mi NW 19.6 mph 31.1 mph N/A   Overcast
6:55 PM 28.4 °F 15.1 °F 15.8 °F 59% 30.12 in 10.0 mi NW 20.7 mph 34.5 mph N/A   Overcast
7:15 PM 28.4 °F 15.1 °F 15.8 °F 59% 30.13 in 10.0 mi WNW 20.7 mph 32.2 mph N/A   Overcast
7:35 PM 28.4 °F 15.1 °F 15.8 °F 59% 30.13 in 10.0 mi WNW 20.7 mph 26.5 mph N/A   Overcast
7:55 PM 28.4 °F 15.1 °F 15.8 °F 59% 30.14 in 10.0 mi NW 20.7 mph 26.5 mph N/A   Overcast
8:15 PM 28.4 °F 14.7 °F 15.8 °F 59% 30.14 in 10.0 mi WNW 21.9 mph 28.8 mph N/A   Overcast
8:35 PM 28.4 °F 15.8 °F 14.0 °F 55% 30.14 in 10.0 mi WNW 18.4 mph - N/A   Overcast
8:55 PM 26.6 °F 13.4 °F 15.8 °F 64% 30.14 in 10.0 mi WNW 18.4 mph - N/A   Overcast
9:15 PM 26.6 °F 13.4 °F 15.8 °F 64% 30.14 in 10.0 mi WNW 18.4 mph 25.3 mph N/A   Overcast
9:35 PM 26.6 °F 13.8 °F 15.8 °F 64% 30.14 in 10.0 mi WNW 17.3 mph 25.3 mph N/A   Overcast
9:55 PM 26.6 °F 14.3 °F 15.8 °F 64% 30.15 in 10.0 mi WNW 16.1 mph 21.9 mph N/A   Overcast
10:15 PM 26.6 °F 13.8 °F 15.8 °F 64% 30.14 in 10.0 mi WNW 17.3 mph 24.2 mph N/A   Overcast
10:35 PM 26.6 °F 13.8 °F 15.8 °F 64% 30.14 in 10.0 mi WNW 17.3 mph 25.3 mph N/A   Overcast
10:55 PM 26.6 °F 15.2 °F 15.8 °F 64% 30.14 in 10.0 mi WNW 13.8 mph 19.6 mph N/A   Overcast
11:15 PM 26.6 °F 14.3 °F 15.8 °F 64% 30.14 in 10.0 mi WNW 16.1 mph 23.0 mph N/A   Overcast
11:35 PM 26.6 °F 14.7 °F 15.8 °F 64% 30.15 in 10.0 mi WNW 15.0 mph 20.7 mph N/A   Overcast
11:55 PM 26.6 °F 15.7 °F 15.8 °F 64% 30.15 in 10.0 mi WNW 12.7 mph 24.2 mph N/A   Overcast